• In Moldova, Republic
  • List of Countries
  • For 7 days
  • Water Temperature
  • Satellite Maps
  • Weather Map
  • Weather Widgets
  • user-avatar
    Login

    Hourly Weather Eisenstadt

    Today, 27 May, Saturday

    Time Temperature Precipitation Wind Pressure Humidity
    00:00 +13°C° 0.1 mm 2 mps 724 mmHg 91%
    01:00 +12°C° 0 mm 3 mps 725 mmHg 90%
    02:00 +11°C° 0.1 mm 3 mps 725 mmHg 91%
    03:00 +11°C° 0.1 mm 3 mps 725 mmHg 92%
    04:00 +12°C° 0.1 mm 2 mps 725 mmHg 93%
    05:00 +12°C° 0 mm 3 mps 725 mmHg 88%
    06:00 +14°C° 0 mm 3 mps 725 mmHg 84%
    07:00 +16°C° 0 mm 3 mps 726 mmHg 80%
    08:00 +18°C° 0 mm 4 mps 726 mmHg 73%
    09:00 +19°C° 0 mm 4 mps 726 mmHg 65%
    10:00 +20°C° 0 mm 4 mps 726 mmHg 58%
    11:00 +21°C° 0 mm 5 mps 726 mmHg 56%
    12:00 +21°C° 0 mm 5 mps 726 mmHg 54%
    13:00 +22°C° 0 mm 5 mps 727 mmHg 52%
    14:00 +22°C° 0 mm 5 mps 726 mmHg 53%
    15:00 +21°C° 0 mm 5 mps 726 mmHg 55%
    16:00 +21°C° 0 mm 5 mps 726 mmHg 56%
    17:00 +20°C° 0 mm 4 mps 726 mmHg 64%
    18:00 +18°C° 0 mm 3 mps 726 mmHg 71%
    19:00 +17°C° 0 mm 3 mps 726 mmHg 79%
    20:00 +15°C° 0 mm 2 mps 726 mmHg 82%
    21:00 +14°C° 0 mm 2 mps 727 mmHg 85%
    22:00 +12°C° 0 mm 2 mps 727 mmHg 88%
    23:00 +10°C° 0 mm 2 mps 727 mmHg 89%

    Tomorrow, 28 May, Sunday

    Time Temperature Precipitation Wind Pressure Humidity
    00:00 +11°C° 0 mm 1 mps 727 mmHg 90%
    01:00 +10°C° 0 mm 1 mps 727 mmHg 91%
    02:00 +10°C° 0 mm 1 mps 727 mmHg 91%
    03:00 +9°C° 0 mm 1 mps 727 mmHg 91%
    04:00 +8°C° 0 mm 1 mps 727 mmHg 92%
    05:00 +11°C° 0 mm 1 mps 727 mmHg 85%
    06:00 +14°C° 0 mm 1 mps 728 mmHg 78%
    07:00 +18°C° 0 mm 1 mps 728 mmHg 72%
    08:00 +18°C° 0 mm 2 mps 728 mmHg 66%
    09:00 +19°C° 0 mm 2 mps 729 mmHg 61%
    10:00 +21°C° 0 mm 2 mps 729 mmHg 55%
    11:00 +21°C° 0 mm 3 mps 729 mmHg 53%
    12:00 +22°C° 0 mm 3 mps 728 mmHg 52%
    13:00 +24°C° 0 mm 3 mps 728 mmHg 50%
    14:00 +24°C° 0 mm 3 mps 728 mmHg 51%
    15:00 +24°C° 0 mm 3 mps 728 mmHg 52%
    16:00 +24°C° 0 mm 3 mps 727 mmHg 53%
    17:00 +21°C° 0 mm 3 mps 727 mmHg 60%
    18:00 +19°C° 0 mm 3 mps 727 mmHg 67%
    19:00 +18°C° 0 mm 2 mps 727 mmHg 74%
    20:00 +16°C° 0 mm 2 mps 727 mmHg 76%
    21:00 +15°C° 0 mm 2 mps 727 mmHg 79%
    22:00 +14°C° 0 mm 2 mps 727 mmHg 81%
    23:00 +13°C° 0 mm 2 mps 726 mmHg 81%

    Day after tomorrow, 29 May, Monday

    Time Temperature Precipitation Wind Pressure Humidity
    00:00 +13°C° 0 mm 2 mps 726 mmHg 82%
    01:00 +12°C° 0 mm 2 mps 726 mmHg 82%
    02:00 +12°C° 0 mm 2 mps 725 mmHg 83%
    03:00 +12°C° 0 mm 2 mps 725 mmHg 84%
    04:00 +10°C° 0 mm 2 mps 725 mmHg 85%
    05:00 +13°C° 0 mm 2 mps 725 mmHg 80%
    06:00 +15°C° 0 mm 2 mps 725 mmHg 76%
    07:00 +18°C° 0 mm 2 mps 725 mmHg 71%
    08:00 +19°C° 0 mm 3 mps 725 mmHg 66%
    09:00 +21°C° 0 mm 3 mps 725 mmHg 61%
    10:00 +24°C° 0 mm 3 mps 725 mmHg 57%
    11:00 +23°C° 0 mm 4 mps 725 mmHg 55%
    12:00 +25°C° 0 mm 4 mps 725 mmHg 54%
    13:00 +26°C° 0 mm 4 mps 724 mmHg 53%
    14:00 +26°C° 0 mm 4 mps 724 mmHg 55%
    15:00 +26°C° 0 mm 4 mps 724 mmHg 56%
    16:00 +25°C° 0 mm 4 mps 723 mmHg 58%
    17:00 +24°C° 0 mm 3 mps 723 mmHg 65%
    18:00 +21°C° 0 mm 3 mps 723 mmHg 73%
    19:00 +20°C° 0 mm 2 mps 723 mmHg 80%
    20:00 +18°C° 0 mm 2 mps 723 mmHg 83%
    21:00 +17°C° 0 mm 2 mps 723 mmHg 86%
    22:00 +15°C° 0 mm 2 mps 723 mmHg 89%
    23:00 +15°C° 0 mm 2 mps 722 mmHg 89%

    30 May, Tuesday

    Time Temperature Precipitation Wind Pressure Humidity
    00:00 +14°C° 0 mm 2 mps 722 mmHg 90%
    01:00 +14°C° 0 mm 2 mps 722 mmHg 91%
    02:00 +14°C° 0 mm 2 mps 722 mmHg 92%
    03:00 +13°C° 0 mm 2 mps 722 mmHg 92%
    04:00 +13°C° 0 mm 2 mps 722 mmHg 92%
    05:00 +15°C° 0 mm 1 mps 722 mmHg 87%
    06:00 +18°C° 0 mm 1 mps 722 mmHg 81%
    07:00 +21°C° 0 mm 1 mps 723 mmHg 76%
    08:00 +22°C° 0 mm 1 mps 723 mmHg 70%
    09:00 +24°C° 0 mm 2 mps 723 mmHg 65%
    10:00 +25°C° 0 mm 2 mps 723 mmHg 59%
    11:00 +26°C° 0.1 mm 2 mps 723 mmHg 58%
    12:00 +27°C° 0.1 mm 2 mps 723 mmHg 58%
    13:00 +27°C° 0.1 mm 2 mps 723 mmHg 57%
    14:00 +27°C° 0.3 mm 2 mps 723 mmHg 58%
    15:00 +27°C° 0.3 mm 2 mps 723 mmHg 59%
    16:00 +27°C° 0.3 mm 2 mps 723 mmHg 60%
    17:00 +26°C° 0.2 mm 2 mps 722 mmHg 67%
    18:00 +24°C° 0.2 mm 2 mps 722 mmHg 73%
    19:00 +23°C° 0.2 mm 2 mps 722 mmHg 80%
    20:00 +20°C° 0 mm 2 mps 722 mmHg 83%
    21:00 +19°C° 0 mm 2 mps 723 mmHg 85%
    22:00 +17°C° 0 mm 2 mps 723 mmHg 88%
    23:00 +17°C° 0.2 mm 2 mps 723 mmHg 89%

    31 May, Wednesday

    Time Temperature Precipitation Wind Pressure Humidity
    00:00 +18°C° 0.2 mm 1 mps 723 mmHg 89%
    01:00 +18°C° 0.2 mm 1 mps 723 mmHg 90%
    02:00 +16°C° 0.2 mm 1 mps 723 mmHg 90%
    03:00 +16°C° 0.2 mm 1 mps 723 mmHg 91%
    04:00 +16°C° 0.2 mm 1 mps 723 mmHg 91%
    05:00 +19°C° 0.2 mm 1 mps 723 mmHg 88%
    06:00 +20°C° 0.2 mm 1 mps 723 mmHg 85%
    07:00 +22°C° 0.2 mm 1 mps 724 mmHg 82%
    08:00 +23°C° 0.1 mm 1 mps 724 mmHg 78%
    09:00 +24°C° 0.1 mm 2 mps 724 mmHg 75%
    10:00 +25°C° 0.1 mm 2 mps 724 mmHg 71%
    11:00 +25°C° 0.2 mm 2 mps 724 mmHg 69%
    12:00 +26°C° 0.2 mm 2 mps 724 mmHg 66%
    13:00 +26°C° 0.2 mm 2 mps 724 mmHg 63%
    14:00 +26°C° 1.3 mm 2 mps 724 mmHg 65%
    15:00 +26°C° 1.3 mm 2 mps 724 mmHg 67%
    16:00 +26°C° 1.3 mm 2 mps 723 mmHg 69%
    17:00 +25°C° 1.6 mm 2 mps 723 mmHg 75%
    18:00 +23°C° 1.6 mm 2 mps 723 mmHg 81%
    19:00 +21°C° 1.6 mm 2 mps 723 mmHg 86%
    20:00 +20°C° 0.4 mm 2 mps 723 mmHg 88%
    21:00 +19°C° 0.4 mm 2 mps 724 mmHg 90%
    22:00 +18°C° 0.4 mm 3 mps 724 mmHg 92%
    23:00 +18°C° 0 mm 3 mps 724 mmHg 92%

    1 June, Thursday

    Time Temperature Precipitation Wind Pressure Humidity
    00:00 +17°C° 0 mm 3 mps 724 mmHg 92%
    01:00 +16°C° 0 mm 3 mps 724 mmHg 92%
    02:00 +16°C° 0 mm 3 mps 724 mmHg 92%
    03:00 +14°C° 0 mm 3 mps 724 mmHg 92%
    04:00 +13°C° 0 mm 3 mps 724 mmHg 91%
    05:00 +14°C° 0 mm 3 mps 724 mmHg 88%
    06:00 +15°C° 0 mm 4 mps 724 mmHg 84%
    07:00 +17°C° 0 mm 4 mps 725 mmHg 80%
    08:00 +19°C° 0 mm 4 mps 725 mmHg 75%
    09:00 +20°C° 0 mm 4 mps 725 mmHg 69%
    10:00 +21°C° 0 mm 3 mps 725 mmHg 63%
    11:00 +22°C° 0 mm 3 mps 725 mmHg 62%
    12:00 +22°C° 0 mm 3 mps 725 mmHg 61%
    13:00 +24°C° 0 mm 3 mps 725 mmHg 60%
    14:00 +24°C° 0 mm 3 mps 724 mmHg 61%
    15:00 +22°C° 0 mm 3 mps 724 mmHg 62%
    16:00 +23°C° 0 mm 2 mps 724 mmHg 63%
    17:00 +21°C° 0 mm 2 mps 724 mmHg 68%
    18:00 +20°C° 0 mm 2 mps 724 mmHg 73%
    19:00 +20°C° 0 mm 1 mps 724 mmHg 78%
    20:00 +19°C° 0 mm 1 mps 724 mmHg 79%
    21:00 +18°C° 0 mm 1 mps 724 mmHg 80%
    22:00 +16°C° 0 mm 1 mps 724 mmHg 82%
    23:00 +16°C° 0 mm 1 mps 724 mmHg 82%
    Show more